EW7419 Weather Reports


time (UTC)temp
C
wind
direction
speed
KPH
gust
KPH
rain 1hr
cm
rain 24hr
cm
rain mn
cm
humidity
%
barometer
mb
20260505140527 11 195 8.0 20.9 0.00 0.00 0.00 58 1010.8
20260505125025 12 169 4.8 14.5 0.00 0.00 0.00 64 1009.8
20260505124546 12 173 4.8 20.9 0.00 0.00 0.00 63 1009.7
20260505124026 12 194 8.0 20.9 0.00 0.00 0.00 63 1009.6
20260505123524 12 175 8.0 19.3 0.00 0.00 0.00 63 1009.5
20260505123044 12 190 8.0 19.3 0.00 0.00 0.00 64 1009.4
20260505122524 12 168 4.8 19.3 0.00 0.00 0.00 65 1009.3
20260505122023 12 171 6.4 20.9 0.00 0.00 0.00 65 1009.3
20260505121548 12 217 8.0 20.9 0.00 0.00 0.00 66 1009.4
20260505121025 12 184 6.4 16.1 0.00 0.00 0.00 66 1009.4
20260505120524 12 171 9.7 17.7 0.00 0.00 0.00 66 1009.5
20260505120042 12 190 8.0 17.7 0.00 0.00 0.00 68 1009.5
20260505115522 12 182 6.4 22.5 0.00 0.00 0.00 68 1009.7
20260505115023 12 175 9.7 22.5 0.00 0.00 0.00 69 1009.7
20260505114540 12 202 6.4 17.7 0.00 0.00 0.00 71 1009.7
20260505114023 12 0 3.2 11.3 0.00 0.00 0.00 71 1009.7
20260505113524 12 201 3.2 11.3 0.00 0.00 0.00 71 1009.7
20260505113042 12 194 3.2 11.3 0.00 0.00 0.00 71 1009.8
20260505112521 12 0 1.6 6.4 0.00 0.00 0.00 71 1009.9
20260505112023 11 0 0.0 8.0 0.00 0.00 0.00 70 1009.8
20260505111548 11 190 0.0 8.0 0.00 0.00 0.00 71 1009.8
20260505111023 11 189 1.6 8.0 0.00 0.00 0.00 71 1009.8
20260505110522 11 0 0.0 1.6 0.00 0.00 0.00 74 1009.9
20260505102023 12 205 1.6 9.7 0.00 0.00 0.00 61 1009.8
20260505101554 12 0 0.0 1.6 0.00 0.00 0.00 63 1009.7
20260505101023 12 0 0.0 9.7 0.00 0.00 0.00 63 1009.7
20260505100524 12 0 0.0 9.7 0.00 0.00 0.00 63 1009.7
20260505100047 12 189 1.6 9.7 0.00 0.00 0.00 62 1009.7
20260505095524 12 190 1.6 8.0 0.00 0.00 0.00 62 1009.7
20260505095023 12 0 0.0 8.0 0.00 0.00 0.00 61 1009.9
20260505094552 13 180 0.0 11.3 0.00 0.00 0.00 62 1009.9
20260505094024 13 178 0.0 11.3 0.00 0.00 0.00 62 1009.8
20260505093525 13 190 4.8 14.5 0.00 0.00 0.00 62 1009.7
20260505093051 13 0 6.4 14.5 0.00 0.00 0.00 60 1009.8
20260505092525 13 181 3.2 16.1 0.00 0.00 0.00 60 1009.9
20260505092025 13 181 3.2 16.1 0.00 0.00 0.00 61 1009.7
20260505091540 13 184 4.8 20.9 0.00 0.00 0.00 61 1009.8
20260505091024 13 193 8.0 20.9 0.00 0.00 0.00 61 1009.8
20260505090524 13 175 4.8 11.3 0.00 0.00 0.00 61 1009.8
20260505090039 13 185 3.2 12.9 0.00 0.00 0.00 61 1009.8
20260505085528 13 190 4.8 14.5 0.00 0.00 0.00 61 1009.8
20260505085025 13 194 6.4 14.5 0.00 0.00 0.00 61 1009.9
20260505084546 13 178 4.8 11.3 0.00 0.00 0.00 62 1009.7
20260505084023 13 187 4.8 14.5 0.00 0.00 0.00 61 1009.9
20260505083524 13 189 4.8 14.5 0.00 0.00 0.00 61 1009.9
20260505083101 13 174 4.8 14.5 0.00 0.00 0.00 62 1010.0
20260505082525 13 160 4.8 17.7 0.00 0.00 0.00 62 1009.9
20260505082023 13 173 6.4 17.7 0.00 0.00 0.00 62 1010.0
20260505081544 13 178 4.8 17.7 0.00 0.00 0.00 62 1009.9
20260505081025 13 182 3.2 20.9 0.00 0.00 0.00 63 1010.0
20260505080524 13 175 6.4 25.7 0.00 0.00 0.00 63 1010.1
20260505080045 13 169 6.4 25.7 0.00 0.00 0.00 62 1009.9
20260505075524 13 198 8.0 17.7 0.00 0.00 0.00 61 1009.9
20260505075024 13 205 6.4 19.3 0.00 0.00 0.00 61 1009.9
20260505074543 13 167 6.4 29.0 0.00 0.00 0.00 60 1009.9
20260505074024 13 180 11.3 29.0 0.00 0.00 0.00 60 1009.9
20260505073524 13 185 9.7 30.6 0.00 0.00 0.00 59 1009.9
20260505073041 13 175 14.5 30.6 0.00 0.00 0.00 58 1010.0
20260505072525 13 125 12.9 27.4 0.00 0.00 0.00 58 1009.7
20260505072025 13 197 12.9 29.0 0.00 0.00 0.00 59 1009.7
20260505071539 13 188 14.5 32.2 0.00 0.00 0.00 58 1009.7
20260505071025 13 204 11.3 32.2 0.00 0.00 0.00 57 1009.7
20260505070525 13 165 9.7 25.7 0.00 0.00 0.00 56 1009.7
20260505070101 13 146 12.9 25.7 0.00 0.00 0.00 56 1009.7
20260505065525 13 180 16.1 30.6 0.00 0.00 0.00 56 1009.8
20260505065024 13 209 11.3 30.6 0.00 0.00 0.00 56 1009.9
20260505064553 12 182 11.3 29.0 0.00 0.00 0.00 57 1009.9
20260505064025 12 170 8.0 27.4 0.00 0.00 0.00 57 1010.0
20260505063524 12 149 12.9 24.1 0.00 0.00 0.00 57 1010.0
20260505063043 13 155 12.9 24.1 0.00 0.00 0.00 58 1009.9
20260505062525 13 190 9.7 20.9 0.00 0.00 0.00 58 1010.0
20260505062022 13 169 9.7 22.5 0.00 0.00 0.00 58 1010.0
20260505061553 13 171 11.3 27.4 0.00 0.00 0.00 59 1010.0
20260505061023 13 178 11.3 27.4 0.00 0.00 0.00 59 1010.1
20260505060524 13 205 12.9 30.6 0.00 0.00 0.00 59 1010.1
20260505060044 13 192 16.1 33.8 0.00 0.00 0.00 59 1010.0
20260505055523 13 189 11.3 33.8 0.00 0.00 0.00 60 1010.0
20260505055022 13 178 14.5 29.0 0.00 0.00 0.00 59 1010.2
20260505054551 13 177 11.3 24.1 0.00 0.00 0.00 60 1010.3
20260505054022 13 172 8.0 32.2 0.00 0.00 0.00 60 1010.4
20260505053523 13 175 16.1 32.2 0.00 0.00 0.00 59 1010.1
20260505053046 13 171 12.9 33.8 0.00 0.00 0.00 59 1009.9
20260505052523 13 173 16.1 40.2 0.00 0.00 0.00 59 1009.9
20260505052025 13 186 16.1 40.2 0.00 0.00 0.00 58 1009.9
20260505051543 13 173 14.5 35.4 0.00 0.00 0.00 58 1009.9
20260505051024 13 188 12.9 35.4 0.00 0.00 0.00 59 1009.8
20260505050523 14 174 16.1 35.4 0.00 0.00 0.00 58 1009.7
20260505041544 16 176 9.7 25.7 0.00 0.00 0.00 43 1008.8
20260505041022 16 179 14.5 25.7 0.00 0.00 0.00 42 1008.8
20260505040526 16 170 8.0 20.9 0.00 0.00 0.00 42 1008.8
20260505040058 16 186 8.0 22.5 0.00 0.00 0.00 43 1008.8
20260505035523 16 223 8.0 22.5 0.00 0.00 0.00 43 1008.7
20260505035021 16 180 6.4 12.9 0.00 0.00 0.00 44 1008.6
20260505034543 16 195 1.6 16.1 0.00 0.00 0.00 45 1008.5
20260505034023 16 182 6.4 16.1 0.00 0.00 0.00 45 1008.4
20260505033522 16 196 4.8 20.9 0.00 0.00 0.00 46 1008.5
20260505033036 16 192 9.7 20.9 0.00 0.00 0.00 46 1008.4
20260505032525 16 189 8.0 17.7 0.00 0.00 0.00 45 1008.4
20260505032024 16 201 8.0 22.5 0.00 0.00 0.00 44 1008.3
20260505031551 17 178 6.4 24.1 0.00 0.00 0.00 43 1008.2
20260505031023 17 192 9.7 24.1 0.00 0.00 0.00 42 1008.1
20260505030525 17 182 12.9 22.5 0.00 0.00 0.00 42 1008.1
20260505030044 17 198 6.4 16.1 0.00 0.00 0.00 42 1008.0
20260505025528 17 196 4.8 25.7 0.00 0.00 0.00 42 1008.1
20260505025028 17 169 9.7 25.7 0.00 0.00 0.00 42 1008.0
20260505024541 17 206 9.7 19.3 0.00 0.00 0.00 43 1008.0
20260505024023 17 198 8.0 19.3 0.00 0.00 0.00 42 1007.9
20260505023523 17 178 8.0 30.6 0.00 0.00 0.00 42 1007.8
20260505023041 17 186 9.7 30.6 0.00 0.00 0.00 41 1007.8
20260505022525 18 157 8.0 22.5 0.00 0.00 0.00 39 1007.7
20260505022027 18 163 8.0 29.0 0.00 0.00 0.00 39 1007.8
20260505021540 18 166 9.7 29.0 0.00 0.00 0.00 38 1007.8
20260505021028 18 214 12.9 29.0 0.00 0.00 0.00 38 1007.7
20260505020523 18 173 14.5 29.0 0.00 0.00 0.00 38 1007.7
20260505020042 18 150 11.3 30.6 0.00 0.00 0.00 39 1007.8
20260505015523 18 171 12.9 30.6 0.00 0.00 0.00 38 1007.9
20260505015024 18 160 12.9 25.7 0.00 0.00 0.00 38 1007.9
20260505014546 18 157 8.0 27.4 0.00 0.00 0.00 37 1007.7
20260505014026 19 168 12.9 27.4 0.00 0.00 0.00 36 1007.8
20260505013523 19 184 3.2 8.0 0.00 0.00 0.00 33 1007.8
20260505013041 20 177 1.6 8.0 0.00 0.00 0.00 33 1007.5
20260505012526 20 177 1.6 6.4 0.00 0.00 0.00 33 1007.5
20260505012024 20 177 0.0 4.8 0.00 0.00 0.00 33 1007.5
20260505011545 20 0 1.6 6.4 0.00 0.00 0.00 32 1007.5
20260505011023 20 0 1.6 6.4 0.00 0.00 0.00 32 1007.6
20260505010523 20 0 0.0 6.4 0.00 0.00 0.00 33 1007.7
20260505010055 20 0 0.0 9.7 0.00 0.00 0.00 33 1007.6
20260505005525 20 180 1.6 9.7 0.00 0.00 0.00 32 1007.8
20260505005024 20 51 0.0 4.8 0.00 0.00 0.00 32 1007.8
20260505004547 20 0 1.6 4.8 0.00 0.00 0.00 35 1007.8
20260505004022 20 0 0.0 6.4 0.00 0.00 0.00 35 1007.9
20260505003524 20 0 0.0 9.7 0.00 0.00 0.00 34 1007.8
20260505003044 20 0 1.6 11.3 0.00 0.00 0.00 35 1007.9
20260505002526 20 14 3.2 11.3 0.00 0.00 0.00 34 1007.9
20260505002024 20 126 0.0 11.3 0.00 0.00 0.00 34 1007.9
20260505001543 20 0 0.0 9.7 0.00 0.00 0.00 34 1007.9
20260505001023 19 0 1.6 14.5 0.00 0.00 0.00 34 1008.0
20260505000523 19 61 3.2 14.5 0.00 0.00 0.00 34 1008.0
20260505000054 19 106 4.8 12.9 0.00 0.00 0.00 34 1008.0
20260504235524 20 76 4.8 11.3 0.00 0.00 0.00 34 1008.0
20260504235024 19 59 1.6 8.0 0.00 0.00 0.00 35 1008.1
20260504234540 19 59 1.6 8.0 0.00 0.00 0.00 35 1008.3
20260504234025 19 0 0.0 14.5 0.00 0.00 0.00 35 1008.3
20260504233523 19 142 3.2 14.5 0.00 0.00 0.00 35 1008.5
20260504233047 20 153 3.2 12.9 0.00 0.00 0.00 35 1008.7
20260504232524 20 138 4.8 12.9 0.00 0.00 0.00 34 1008.6
20260504232024 20 134 4.8 16.1 0.00 0.00 0.00 34 1008.7
20260504231545 20 72 6.4 20.9 0.00 0.00 0.00 33 1008.6
20260504231024 20 68 6.4 24.1 0.00 0.00 0.00 33 1008.6
20260504230524 20 31 8.0 24.1 0.00 0.00 0.00 32 1008.6
20260504230046 20 39 8.0 19.3 0.00 0.00 0.00 32 1008.6
20260504225526 20 56 6.4 22.5 0.00 0.00 0.00 34 1008.4
20260504225022 20 92 8.0 25.7 0.00 0.00 0.00 34 1008.5
20260504224544 20 100 9.7 27.4 0.00 0.00 0.00 33 1008.3
20260504224023 21 91 12.9 27.4 0.00 0.00 0.00 32 1008.5
20260504223523 21 52 6.4 20.9 0.00 0.00 0.00 32 1008.5
20260504223043 21 121 4.8 14.5 0.00 0.00 0.00 31 1008.6
20260504222523 21 51 6.4 14.5 0.00 0.00 0.00 31 1008.6
20260504222023 21 28 1.6 14.5 0.00 0.00 0.00 29 1008.6
20260504221542 21 298 6.4 14.5 0.00 0.00 0.00 28 1008.5
20260504221024 21 276 1.6 9.7 0.00 0.00 0.00 30 1008.4
20260504220523 21 290 3.2 12.9 0.00 0.00 0.00 30 1008.5
20260504220056 21 187 1.6 12.9 0.00 0.00 0.00 31 1008.6
20260504215523 21 286 3.2 12.9 0.00 0.00 0.00 31 1008.6
20260504215026 20 219 3.2 11.3 0.00 0.00 0.00 33 1008.7
20260504214544 20 202 1.6 9.7 0.00 0.00 0.00 34 1008.6
20260504214023 20 211 1.6 16.1 0.00 0.00 0.00 35 1009.0
20260504213524 19 220 4.8 16.1 0.00 0.00 0.00 36 1009.0
20260504213059 19 281 4.8 14.5 0.00 0.00 0.00 36 1008.9
20260504212524 19 165 4.8 25.7 0.00 0.00 0.00 35 1009.0
20260504212025 20 265 4.8 25.7 0.00 0.00 0.00 34 1008.9
20260504211544 20 278 4.8 16.1 0.00 0.00 0.00 34 1008.9
20260504211023 20 238 3.2 16.1 0.00 0.00 0.00 30 1008.9
20260504210523 20 257 8.0 20.9 0.00 0.00 0.00 30 1008.9
20260504210040 20 269 9.7 20.9 0.00 0.00 0.00 30 1008.7
20260504205525 20 278 6.4 19.3 0.00 0.00 0.00 31 1008.8
20260504205026 21 290 8.0 19.3 0.00 0.00 0.00 30 1009.0
20260504204550 21 266 4.8 17.7 0.00 0.00 0.00 31 1008.9
20260504204025 21 275 4.8 22.5 0.00 0.00 0.00 31 1009.0
20260504203525 21 282 11.3 22.5 0.00 0.00 0.00 30 1009.0
20260504203048 21 283 9.7 14.5 0.00 0.00 0.00 30 1009.0
20260504202525 21 277 3.2 12.9 0.00 0.00 0.00 30 1009.1
20260504202025 22 278 3.2 12.9 0.00 0.00 0.00 30 1009.1
20260504201544 22 221 3.2 12.9 0.00 0.00 0.00 30 1009.1
20260504201024 22 291 0.0 4.8 0.00 0.00 0.00 30 1009.2
20260504200524 21 0 0.0 4.8 0.00 0.00 0.00 29 1009.1
20260504200041 21 254 1.6 6.4 0.00 0.00 0.00 28 1009.1
20260504195524 21 0 0.0 6.4 0.00 0.00 0.00 29 1009.2
20260504195024 21 180 1.6 11.3 0.00 0.00 0.00 29 1009.2
20260504194540 21 0 1.6 11.3 0.00 0.00 0.00 30 1009.2
20260504194024 21 154 3.2 9.7 0.00 0.00 0.00 29 1009.2
20260504193526 21 130 1.6 11.3 0.00 0.00 0.00 30 1009.3
20260504193052 21 0 1.6 11.3 0.00 0.00 0.00 30 1009.2
20260504192525 21 90 4.8 11.3 0.00 0.00 0.00 30 1009.3
20260504192025 21 180 0.0 8.0 0.00 0.00 0.00 29 1009.3
20260504191545 21 179 0.0 14.5 0.00 0.00 0.00 29 1009.5
20260504191025 21 173 3.2 16.1 0.00 0.00 0.00 29 1009.4
20260504190526 21 168 8.0 16.1 0.00 0.00 0.00 30 1009.5
20260504190051 21 177 9.7 19.3 0.00 0.00 0.00 29 1009.6
20260504185523 21 119 9.7 19.3 0.00 0.00 0.00 29 1009.7
20260504185026 21 169 9.7 19.3 0.00 0.00 0.00 27 1009.7
20260504184544 21 192 8.0 20.9 0.00 0.00 0.00 30 1009.7
20260504184024 21 162 11.3 20.9 0.00 0.00 0.00 29 1009.8
20260504183525 21 161 9.7 17.7 0.00 0.00 0.00 30 1009.7
20260504183055 21 166 6.4 16.1 0.00 0.00 0.00 31 1009.7
20260504182523 21 137 6.4 22.5 0.00 0.00 0.00 30 1009.9
20260504182024 21 184 9.7 22.5 0.00 0.00 0.00 32 1009.9
20260504181540 21 155 6.4 19.3 0.00 0.00 0.00 33 1010.0
20260504181025 21 188 8.0 22.5 0.00 0.00 0.00 32 1010.0
20260504180525 21 152 11.3 22.5 0.00 0.00 0.00 32 1010.1
20260504180117 21 124 11.3 20.9 0.00 0.00 0.00 32 1010.3
20260504175525 21 141 8.0 19.3 0.00 0.00 0.00 32 1010.3
20260504175024 21 170 9.7 22.5 0.00 0.00 0.00 33 1010.5
20260504174546 21 178 11.3 24.1 0.00 0.00 0.00 33 1010.4
20260504174023 20 175 12.9 24.1 0.00 0.00 0.00 33 1010.3
20260504173526 20 178 14.5 24.1 0.00 0.00 0.00 33 1010.4
20260504173046 20 125 9.7 25.7 0.00 0.00 0.00 33 1010.4
20260504172524 20 128 14.5 25.7 0.00 0.00 0.00 34 1010.4
20260504172023 20 150 12.9 25.7 0.00 0.00 0.00 34 1010.5
20260504171548 20 157 14.5 27.4 0.00 0.00 0.00 33 1010.5
20260504171028 20 168 11.3 27.4 0.00 0.00 0.00 34 1010.6
20260504170525 20 155 11.3 27.4 0.00 0.00 0.00 34 1010.7
20260504151024 17 181 11.3 20.9 0.00 0.00 0.00 45 1011.2
20260504150525 17 202 6.4 24.1 0.00 0.00 0.00 47 1011.3